• în Republica Moldova
  • Lista ţărilor
  • Pe 7 zile
  • Temperatura apei
  • Hartă satelitară
  • Meteo pe hartă
  • Widget-uri
  • user-avatar
    Intrare

    Meteo pe oră la Darwin

    Astăzi, 23 August, Miercuri

    Timp Temperatura Precipitaţii Vânt Presiune Umiditate
    00:00 +26°C° 0 mm 3 m/s 760 mmHg 73%
    01:00 +25°C° 0 mm 3 m/s 760 mmHg 75%
    02:00 +25°C° 0 mm 3 m/s 760 mmHg 77%
    03:00 +24°C° 0 mm 3 m/s 760 mmHg 80%
    04:00 +24°C° 0 mm 3 m/s 760 mmHg 80%
    05:00 +24°C° 0 mm 3 m/s 760 mmHg 81%
    06:00 +22°C° 0 mm 3 m/s 761 mmHg 81%
    07:00 +25°C° 0 mm 4 m/s 761 mmHg 69%
    08:00 +27°C° 0 mm 4 m/s 761 mmHg 57%
    09:00 +30°C° 0 mm 4 m/s 761 mmHg 46%
    10:00 +33°C° 0 mm 4 m/s 761 mmHg 38%
    11:00 +35°C° 0 mm 5 m/s 761 mmHg 30%
    12:00 +37°C° 0 mm 5 m/s 760 mmHg 23%
    13:00 +39°C° 0 mm 5 m/s 760 mmHg 23%
    14:00 +39°C° 0 mm 6 m/s 759 mmHg 23%
    15:00 +40°C° 0 mm 6 m/s 758 mmHg 23%
    16:00 +38°C° 0 mm 6 m/s 758 mmHg 29%
    17:00 +35°C° 0 mm 5 m/s 758 mmHg 35%
    18:00 +33°C° 0 mm 5 m/s 758 mmHg 40%
    19:00 +32°C° 0 mm 5 m/s 759 mmHg 48%
    20:00 +29°C° 0 mm 4 m/s 759 mmHg 56%
    21:00 +28°C° 0 mm 4 m/s 759 mmHg 64%
    22:00 +27°C° 0 mm 3 m/s 760 mmHg 67%
    23:00 +27°C° 0 mm 3 m/s 760 mmHg 70%

    Mâine, 24 August, Joi

    Timp Temperatura Precipitaţii Vânt Presiune Umiditate
    00:00 +26°C° 0 mm 2 m/s 760 mmHg 73%
    01:00 +26°C° 0 mm 2 m/s 760 mmHg 75%
    02:00 +26°C° 0 mm 2 m/s 760 mmHg 78%
    03:00 +25°C° 0 mm 2 m/s 760 mmHg 80%
    04:00 +25°C° 0 mm 3 m/s 760 mmHg 83%
    05:00 +24°C° 0 mm 3 m/s 760 mmHg 85%
    06:00 +24°C° 0 mm 3 m/s 760 mmHg 88%
    07:00 +26°C° 0 mm 4 m/s 760 mmHg 72%
    08:00 +28°C° 0 mm 4 m/s 761 mmHg 57%
    09:00 +32°C° 0 mm 5 m/s 761 mmHg 41%
    10:00 +34°C° 0 mm 5 m/s 760 mmHg 33%
    11:00 +37°C° 0 mm 5 m/s 760 mmHg 24%
    12:00 +40°C° 0 mm 6 m/s 759 mmHg 16%
    13:00 +41°C° 0 mm 6 m/s 759 mmHg 16%
    14:00 +41°C° 0 mm 5 m/s 758 mmHg 16%
    15:00 +42°C° 0 mm 5 m/s 757 mmHg 16%
    16:00 +40°C° 0 mm 5 m/s 757 mmHg 21%
    17:00 +37°C° 0 mm 4 m/s 757 mmHg 26%
    18:00 +35°C° 0 mm 4 m/s 757 mmHg 31%
    19:00 +33°C° 0 mm 4 m/s 758 mmHg 42%
    20:00 +30°C° 0 mm 3 m/s 759 mmHg 53%
    21:00 +28°C° 0 mm 3 m/s 759 mmHg 64%
    22:00 +27°C° 0 mm 3 m/s 760 mmHg 68%
    23:00 +27°C° 0 mm 2 m/s 760 mmHg 71%

    Poimâine, 25 August, Vineri

    Timp Temperatura Precipitaţii Vânt Presiune Umiditate
    00:00 +27°C° 0 mm 2 m/s 760 mmHg 75%
    01:00 +26°C° 0 mm 2 m/s 760 mmHg 78%
    02:00 +26°C° 0 mm 2 m/s 760 mmHg 82%
    03:00 +25°C° 0 mm 2 m/s 759 mmHg 85%
    04:00 +25°C° 0 mm 3 m/s 760 mmHg 86%
    05:00 +24°C° 0 mm 3 m/s 760 mmHg 87%
    06:00 +23°C° 0 mm 4 m/s 760 mmHg 88%
    07:00 +26°C° 0 mm 5 m/s 760 mmHg 67%
    08:00 +28°C° 0 mm 6 m/s 761 mmHg 46%
    09:00 +30°C° 0 mm 7 m/s 761 mmHg 24%
    10:00 +34°C° 0 mm 6 m/s 761 mmHg 22%
    11:00 +36°C° 0 mm 6 m/s 760 mmHg 19%
    12:00 +39°C° 0 mm 6 m/s 759 mmHg 16%
    13:00 +40°C° 0 mm 5 m/s 759 mmHg 15%
    14:00 +40°C° 0 mm 5 m/s 758 mmHg 15%
    15:00 +41°C° 0 mm 4 m/s 757 mmHg 14%
    16:00 +38°C° 0 mm 4 m/s 757 mmHg 16%
    17:00 +37°C° 0 mm 3 m/s 757 mmHg 18%
    18:00 +35°C° 0 mm 3 m/s 757 mmHg 21%
    19:00 +33°C° 0 mm 3 m/s 758 mmHg 25%
    20:00 +30°C° 0 mm 3 m/s 758 mmHg 30%
    21:00 +28°C° 0 mm 3 m/s 759 mmHg 34%
    22:00 +27°C° 0 mm 2 m/s 759 mmHg 38%
    23:00 +27°C° 0 mm 2 m/s 759 mmHg 42%

    26 August, Sâmbătă

    Timp Temperatura Precipitaţii Vânt Presiune Umiditate
    00:00 +26°C° 0 mm 1 m/s 760 mmHg 45%
    01:00 +25°C° 0 mm 2 m/s 759 mmHg 42%
    02:00 +25°C° 0 mm 2 m/s 759 mmHg 40%
    03:00 +24°C° 0 mm 3 m/s 759 mmHg 37%
    04:00 +22°C° 0 mm 3 m/s 759 mmHg 36%
    05:00 +22°C° 0 mm 4 m/s 760 mmHg 36%
    06:00 +21°C° 0 mm 5 m/s 760 mmHg 35%
    07:00 +23°C° 0 mm 6 m/s 760 mmHg 33%
    08:00 +26°C° 0 mm 6 m/s 761 mmHg 32%
    09:00 +28°C° 0 mm 7 m/s 761 mmHg 30%
    10:00 +32°C° 0 mm 6 m/s 760 mmHg 25%
    11:00 +34°C° 0 mm 6 m/s 760 mmHg 20%
    12:00 +37°C° 0 mm 5 m/s 759 mmHg 15%
    13:00 +37°C° 0 mm 5 m/s 758 mmHg 14%
    14:00 +38°C° 0 mm 4 m/s 758 mmHg 13%
    15:00 +40°C° 0 mm 4 m/s 757 mmHg 11%
    16:00 +37°C° 0 mm 4 m/s 757 mmHg 14%
    17:00 +36°C° 0 mm 3 m/s 757 mmHg 16%
    18:00 +34°C° 0 mm 3 m/s 757 mmHg 18%
    19:00 +31°C° 0 mm 3 m/s 758 mmHg 23%
    20:00 +29°C° 0 mm 2 m/s 759 mmHg 28%
    21:00 +27°C° 0 mm 2 m/s 760 mmHg 32%
    22:00 +26°C° 0 mm 2 m/s 760 mmHg 34%
    23:00 +25°C° 0 mm 2 m/s 760 mmHg 36%

    27 August, Duminică

    Timp Temperatura Precipitaţii Vânt Presiune Umiditate
    00:00 +25°C° 0 mm 2 m/s 760 mmHg 38%
    01:00 +24°C° 0 mm 2 m/s 760 mmHg 36%
    02:00 +24°C° 0 mm 2 m/s 759 mmHg 35%
    03:00 +24°C° 0 mm 3 m/s 759 mmHg 34%
    04:00 +22°C° 0 mm 3 m/s 759 mmHg 36%
    05:00 +21°C° 0 mm 4 m/s 760 mmHg 39%
    06:00 +21°C° 0 mm 4 m/s 760 mmHg 41%
    07:00 +23°C° 0 mm 5 m/s 760 mmHg 40%
    08:00 +27°C° 0 mm 6 m/s 761 mmHg 39%
    09:00 +29°C° 0 mm 7 m/s 761 mmHg 38%
    10:00 +32°C° 0 mm 6 m/s 760 mmHg 32%
    11:00 +35°C° 0 mm 6 m/s 760 mmHg 26%
    12:00 +38°C° 0 mm 6 m/s 759 mmHg 20%
    13:00 +39°C° 0 mm 5 m/s 758 mmHg 20%
    14:00 +39°C° 0 mm 5 m/s 758 mmHg 20%
    15:00 +40°C° 0 mm 4 m/s 757 mmHg 19%
    16:00 +38°C° 0 mm 4 m/s 757 mmHg 22%
    17:00 +36°C° 0 mm 3 m/s 757 mmHg 25%
    18:00 +35°C° 0 mm 3 m/s 757 mmHg 28%
    19:00 +33°C° 0 mm 3 m/s 758 mmHg 32%
    20:00 +30°C° 0 mm 3 m/s 759 mmHg 37%
    21:00 +29°C° 0 mm 3 m/s 759 mmHg 41%
    22:00 +28°C° 0 mm 2 m/s 759 mmHg 45%
    23:00 +27°C° 0 mm 2 m/s 759 mmHg 48%

    28 August, Luni

    Timp Temperatura Precipitaţii Vânt Presiune Umiditate
    00:00 +26°C° 0 mm 2 m/s 759 mmHg 52%
    01:00 +25°C° 0 mm 2 m/s 759 mmHg 52%
    02:00 +25°C° 0 mm 2 m/s 759 mmHg 52%
    03:00 +24°C° 0 mm 3 m/s 759 mmHg 53%
    04:00 +24°C° 0 mm 3 m/s 759 mmHg 48%
    05:00 +22°C° 0 mm 4 m/s 759 mmHg 44%
    06:00 +21°C° 0 mm 5 m/s 760 mmHg 40%
    07:00 +25°C° 0 mm 5 m/s 760 mmHg 35%
    08:00 +27°C° 0 mm 6 m/s 761 mmHg 30%
    09:00 +30°C° 0 mm 6 m/s 761 mmHg 26%
    10:00 +33°C° 0 mm 6 m/s 760 mmHg 24%
    11:00 +35°C° 0 mm 6 m/s 760 mmHg 23%
    12:00 +37°C° 0 mm 5 m/s 759 mmHg 21%
    13:00 +39°C° 0 mm 5 m/s 758 mmHg 20%
    14:00 +38°C° 0 mm 4 m/s 757 mmHg 19%
    15:00 +40°C° 0 mm 4 m/s 757 mmHg 18%
    16:00 +38°C° 0 mm 4 m/s 757 mmHg 22%
    17:00 +36°C° 0 mm 3 m/s 757 mmHg 25%
    18:00 +34°C° 0 mm 3 m/s 757 mmHg 28%
    19:00 +31°C° 0 mm 3 m/s 758 mmHg 35%
    20:00 +29°C° 0 mm 3 m/s 758 mmHg 42%
    21:00 +28°C° 0 mm 2 m/s 759 mmHg 50%
    22:00 +27°C° 0 mm 2 m/s 759 mmHg 52%
    23:00 +26°C° 0 mm 2 m/s 759 mmHg 55%
    Arată mai mult